Regional Weather Roundup
Issued by NWS Little Rock, AR

Home | Current Version | Previous Version | Graphics & Text | Print | Product List | Glossary On
Versions: 1 2 3 4 5 6 7 8 9 10 11 12 13 14 15 16 17 18 19 20 21 22 23 24 25 26 27 28 29 30 31 32 33 34 35 36 37 38 39 40 41 42 43 44 45 46 47 48 49 50
799
ASUS44 KLZK 170705
RWRLZK

WEATHER ROUNDUP FOR ARKANSAS
NATIONAL WEATHER SERVICE LITTLE ROCK AR
200 AM CDT THU AUG 17 2017

NOTE: "FAIR" INDICATES FEW OR NO CLOUDS BELOW 12,000 FEET WITH NO
SIGNIFICANT WEATHER AND/OR OBSTRUCTIONS TO VISIBILITY.

ARZ001-003-010-029-170800-
NORTHWEST ARKANSAS

CITY           SKY/WX    TMP DP  RH WIND       PRES   REMARKS
FAYETTEVILLE   LGT RAIN  67  67 100 CALM      29.98F
FORT SMITH     CLOUDY    80  76  87 E5        29.89F HX  86
HARRISON       LGT RAIN  68  66  93 SW5       29.96F
BENTONVILLE    CLOUDY    66  64  94 S9        29.96F
ROGERS         LGT RAIN  67  66  97 S8        29.96F
SILOAM SPGS    CLOUDY    68  64  88 SE9       29.95F
HIGHFILL       LGT RAIN  68  68 100 SE13      29.96F
$$

ARZ004-005-016-170800-
NORTH CENTRAL ARKANSAS

CITY           SKY/WX    TMP DP  RH WIND       PRES   REMARKS
BATESVILLE     MOCLDY    79  73  83 S8        29.92F
FLIPPIN        CLOUDY    70  63  78 CALM      29.93F
MTN HOME       CLOUDY    68  68 100 SE5       29.93F
$$

ARZ040-041-170800-
WEST CENTRAL ARKANSAS

CITY           SKY/WX    TMP DP  RH WIND       PRES   REMARKS
MENA           CLOUDY    82  81  94 SW5       29.96S HX  95
MOUNT IDA      CLOUDY    82  75  79 CALM      29.93F HX  89
$$

ARZ009-017-025-026-028-170800-
NORTHEAST ARKANSAS

CITY           SKY/WX    TMP DP  RH WIND       PRES   REMARKS
CORNING        FAIR      79  79 100 S12       29.91
JONESBORO      CLEAR     79  77  94 S14       29.93F
NEWPORT        CLEAR     78  76  93 S14       29.93F
WALNUT RIDGE   CLEAR     79  73  83 S10       29.90F
BLYTHEVILLE    CLEAR     79  77  94 S8        29.94F
$$

ARZ022-023-033-042-044-170800-
CENTRAL ARKANSAS

CITY           SKY/WX    TMP DP  RH WIND       PRES   REMARKS
LITTLE ROCK    CLOUDY    75  75 100 S7        29.95F
N LITTLE ROCK    N/A     77  73  88 S7        29.94F
JACKSONVILLE   PTCLDY    78  75  91 S9        29.93F
CONWAY           N/A     79  77  94 S9        29.91F
SEARCY           N/A    N/A N/A N/A MISG        N/A
HOT SPRINGS    CLOUDY    81  77  88 S9        29.96F HX  88
RUSSELLVILLE   CLOUDY    79  76  90 CALM      29.91F
CLINTON        MOCLDY    75  73  94 CALM      29.93F FOG
$$

ARZ036-170800-
EAST ARKANSAS

CITY           SKY/WX    TMP DP  RH WIND       PRES   REMARKS
WEST MEMPHIS   CLEAR     74  73  97 S9        29.96F
$$

ARZ050-053-066-070-073-170800-
SOUTHWEST ARKANSAS

CITY           SKY/WX    TMP DP  RH WIND       PRES   REMARKS
ARKADELPHIA    CLOUDY    78  76  93 CALM      29.96F
CAMDEN         CLOUDY    77  73  88 S3        29.97F
TEXARKANA      CLOUDY    80  78  94 S12       29.96F HX  88
EL DORADO      CLOUDY    77  76  96 S6        30.00S
DE QUEEN       CLOUDY    81  79  94 S3        29.92F HX  90
$$

ARZ056-057-069-170800-
SOUTHEAST ARKANSAS

CITY           SKY/WX    TMP DP  RH WIND       PRES   REMARKS
PINE BLUFF     PTCLDY    76  74  93 S6        29.98F
MONTICELLO     PTCLDY    76  74  93 S6        30.00S

$$






USA.gov is the U.S. government's official web portal to all federal, state and local government web resources and services.